Location: Crescent
(42.8242°N, 73.7329°W)
Time: 05:49:49
(UTC+00:00)

A-11 Canister half - Pass Details

Date: 16 February 2026
Orbit: 1524 x 1683 km, 47.3° (Epoch: 14 March)

Event Time Altitude Azimuth Distance (km) Brightness Sun altitude
Rises 04:15:38 0° 296° (WNW) 4,680 11.9 -57.4°
Reaches altitude 10° 04:18:44 10° 292° (WNW) 3,702 11.2 -57.6°
Enters shadow 04:19:03 11° 291° (WNW) 3,604 11.1 -57.7°
